Weather History for KULM - October, 2013

Change the Weather History Date:

Saturday, October 5, 2013

  Actual Average Record
Temperature  
Mean Temperature 51 °F -  
Max Temperature 60 °F 67 °F 92 °F (1963)
Min Temperature 42 °F 42 °F 23 °F (1952)
Degree Days  
Heating Degree Days 14    
Growing Degree Days 1 (Base 50)    
Moisture  
Dew Point 44 °F    
Average Humidity 79    
Maximum Humidity 100    
Minimum Humidity 54    
Precipitation  
Precipitation 0.00 in - - ()
Sea Level Pressure  
Sea Level Pressure 29.78 in    
Wind  
Wind Speed 8 mph (SSE)    
Max Wind Speed 17 mph    
Max Gust Speed 24 mph    
Visibility 10 miles    
Events      
Averages and records for this station are not official NWS values.
T = Trace of Precipitation, MM = Missing Value Source: NWS Daily Summary

Daily Weather History Graph

Daily Weather History Graph

Search for Another Location

Airport or City:

Trip Planner

Search our weather history database for the weather conditions in past years. The results will help you decide how hot, cold, wet, or windy it might be!

Date:

Astronomy

Oct. 05, 2013 Rise Set
Actual Time 7:20 AM CDT 6:50 PM CDT
Civil Twilight 6:51 AM CDT 7:19 PM CDT
Nautical Twilight 6:18 AM CDT 7:53 PM CDT
Astronomical Twilight 5:44 AM CDT 8:27 PM CDT
Moon 8:03 AM CDT (10/5) 7:06 PM CDT (10/5)
Length of Visible Light 12h 27m
Length of Day
11h 30m
New Moon, 1% of the Moon is Illuminated
Oct 5
New Moon
Oct 11
First Quarter
Oct 18
Full
Oct 26
Last Quarter
Nov 3
New

Hourly Weather History & Observations

Time (CDT) Temp. Windchill Dew Point Humidity Pressure Visibility Wind Dir Wind Speed Gust Speed Precip Events Conditions
12:13 AM 57.2 °F - 57.2 °F 100% 29.75 in 10.0 mi ENE 9.2 mph 16.1 mph N/A   Overcast
12:33 AM 59.0 °F - 59.0 °F 100% 29.75 in 10.0 mi East 10.4 mph - N/A   Mostly Cloudy
12:53 AM 59.0 °F - 59.0 °F 100% 29.74 in 10.0 mi East 10.4 mph 16.1 mph N/A   Mostly Cloudy
1:13 AM 59.0 °F - 59.0 °F 100% 29.74 in 10.0 mi East 10.4 mph - N/A   Overcast
1:33 AM 59.0 °F - 59.0 °F 100% 29.74 in 10.0 mi East 10.4 mph - N/A   Scattered Clouds
1:53 AM 59.0 °F - 59.0 °F 100% 29.75 in 10.0 mi East 6.9 mph - N/A   Mostly Cloudy
2:12 AM 59.0 °F - 59.0 °F 100% 29.76 in 10.0 mi East 5.8 mph - N/A   Overcast
2:33 AM 59.0 °F - 59.0 °F 100% 29.75 in 10.0 mi East 6.9 mph - N/A   Overcast
2:53 AM 60.8 °F - 60.8 °F 100% 29.74 in 10.0 mi ESE 8.1 mph - N/A   Overcast
3:12 AM 60.8 °F - 60.8 °F 100% 29.74 in 10.0 mi SE 10.4 mph - N/A   Mostly Cloudy
3:33 AM 60.8 °F - 60.8 °F 100% 29.74 in 10.0 mi SE 9.2 mph - N/A   Mostly Cloudy
3:52 AM 60.8 °F - 60.8 °F 100% 29.74 in 10.0 mi SSE 6.9 mph - N/A   Mostly Cloudy
4:13 AM 59.0 °F - 59.0 °F 100% 29.76 in 7.0 mi SW 17.3 mph 24.2 mph N/A   Mostly Cloudy
4:33 AM 55.4 °F - 53.6 °F 94% 29.77 in 10.0 mi SSW 16.1 mph 19.6 mph N/A   Overcast
4:52 AM 51.8 °F - 50.0 °F 94% 29.78 in 10.0 mi SW 10.4 mph - N/A   Mostly Cloudy
5:13 AM 50.0 °F - 46.4 °F 87% 29.78 in 10.0 mi SW 12.7 mph 17.3 mph N/A   Scattered Clouds
5:33 AM 48.2 °F - 46.4 °F 93% 29.78 in 10.0 mi SW 9.2 mph - N/A   Clear
5:52 AM 46.4 °F 43.5 °F 46.4 °F 100% 29.78 in 10.0 mi South 5.8 mph - N/A   Clear
6:13 AM 46.4 °F 42.4 °F 46.4 °F 100% 29.79 in 10.0 mi SW 8.1 mph - N/A   Clear
6:33 AM 46.4 °F 45.2 °F 44.6 °F 93% 29.80 in 10.0 mi South 3.5 mph - N/A   Clear
6:52 AM 44.6 °F - 44.6 °F 100% 29.80 in 10.0 mi Calm Calm - N/A   Scattered Clouds
7:13 AM 44.6 °F 42.2 °F 42.8 °F 93% 29.81 in 10.0 mi WSW 4.6 mph - N/A   Scattered Clouds
7:33 AM 42.8 °F 38.6 °F 41.0 °F 93% 29.83 in 10.0 mi SW 6.9 mph - N/A   Clear
7:53 AM 42.8 °F 38.0 °F 41.0 °F 93% 29.84 in 10.0 mi SW 8.1 mph - N/A   Clear
8:13 AM 42.8 °F 40.1 °F 41.0 °F 93% 29.84 in 10.0 mi SW 4.6 mph - N/A   Clear
8:33 AM 44.6 °F 42.2 °F 41.0 °F 87% 29.85 in 10.0 mi SSW 4.6 mph - N/A   Clear
8:53 AM 44.6 °F 39.2 °F 37.4 °F 76% 29.85 in 10.0 mi SW 10.4 mph - N/A   Clear
9:13 AM 44.6 °F 40.2 °F 37.4 °F 76% 29.85 in 10.0 mi SW 8.1 mph - N/A   Clear
9:33 AM 46.4 °F 41.5 °F 37.4 °F 71% 29.84 in 10.0 mi South 10.4 mph - N/A   Clear
9:53 AM 46.4 °F 42.9 °F 37.4 °F 71% 29.83 in 10.0 mi South 6.9 mph - N/A   Clear
10:13 AM 46.4 °F 41.5 °F 37.4 °F 71% 29.83 in 10.0 mi South 10.4 mph - N/A   Clear
10:33 AM 46.4 °F 42.4 °F 37.4 °F 71% 29.83 in 10.0 mi SSE 8.1 mph - N/A   Clear
10:53 AM 46.4 °F 41.5 °F 39.2 °F 76% 29.82 in 10.0 mi SSE 10.4 mph - N/A   Clear
11:13 AM 48.2 °F - 39.2 °F 71% 29.82 in 10.0 mi SSE 11.5 mph 16.1 mph N/A   Clear
11:32 AM 48.2 °F - 39.2 °F 71% 29.82 in 10.0 mi SSE 11.5 mph - N/A   Clear
11:53 AM 50.0 °F - 39.2 °F 66% 29.81 in 10.0 mi SSE 12.7 mph 17.3 mph N/A   Clear
12:12 PM 48.2 °F - 39.2 °F 71% 29.81 in 10.0 mi SSE 13.8 mph - N/A   Clear
12:33 PM 51.8 °F - 41.0 °F 67% 29.80 in 10.0 mi South 11.5 mph - N/A   Clear
12:53 PM 50.0 °F - 39.2 °F 66% 29.79 in 10.0 mi SSE 10.4 mph - N/A   Clear
1:12 PM 51.8 °F - 39.2 °F 62% 29.79 in 10.0 mi SSE 12.7 mph 17.3 mph N/A   Clear
1:33 PM 51.8 °F - 39.2 °F 62% 29.78 in 10.0 mi SSW 11.5 mph - N/A   Clear
1:53 PM 51.8 °F - 39.2 °F 62% 29.78 in 10.0 mi South 10.4 mph - N/A   Clear
2:12 PM 51.8 °F - 39.2 °F 62% 29.78 in 10.0 mi SSW 9.2 mph - N/A   Clear
2:33 PM 51.8 °F - 39.2 °F 62% 29.77 in 10.0 mi South 12.7 mph - N/A   Clear
2:53 PM 51.8 °F - 39.2 °F 62% 29.77 in 10.0 mi SSE 9.2 mph - N/A   Clear
3:12 PM 51.8 °F - 39.2 °F 62% 29.77 in 10.0 mi SSE 10.4 mph - N/A   Clear
3:33 PM 51.8 °F - 39.2 °F 62% 29.76 in 10.0 mi SSE 10.4 mph - N/A   Scattered Clouds
3:53 PM 51.8 °F - 39.2 °F 62% 29.77 in 10.0 mi SSE 8.1 mph - N/A   Scattered Clouds
4:12 PM 51.8 °F - 39.2 °F 62% 29.76 in 10.0 mi SE 3.5 mph - N/A   Scattered Clouds
4:33 PM 53.6 °F - 39.2 °F 58% 29.75 in 10.0 mi SE 4.6 mph - N/A   Scattered Clouds
4:53 PM 53.6 °F - 39.2 °F 58% 29.75 in 10.0 mi SE 4.6 mph - N/A   Mostly Cloudy
5:12 PM 51.8 °F - 39.2 °F 62% 29.76 in 10.0 mi SE 6.9 mph - N/A   Mostly Cloudy
5:33 PM 53.6 °F - 37.4 °F 54% 29.76 in 10.0 mi South 8.1 mph - N/A   Mostly Cloudy
5:53 PM 51.8 °F - 39.2 °F 62% 29.75 in 10.0 mi East 4.6 mph - N/A   Mostly Cloudy
6:12 PM 51.8 °F - 41.0 °F 67% 29.75 in 10.0 mi Calm Calm - N/A   Overcast
6:33 PM 51.8 °F - 39.2 °F 62% 29.75 in 10.0 mi East 9.2 mph - N/A   Overcast
6:53 PM 50.0 °F - 41.0 °F 71% 29.76 in 10.0 mi East 5.8 mph - N/A   Overcast
7:12 PM 50.0 °F - 41.0 °F 71% 29.76 in 10.0 mi ESE 3.5 mph - N/A   Overcast
7:33 PM 50.0 °F - 41.0 °F 71% 29.76 in 10.0 mi Calm Calm - N/A   Overcast
7:53 PM 50.0 °F - 39.2 °F 66% 29.76 in 10.0 mi Calm Calm - N/A   Overcast
8:13 PM 50.0 °F - 41.0 °F 71% 29.76 in 10.0 mi Calm Calm - N/A   Overcast
8:32 PM 50.0 °F - 39.2 °F 66% 29.75 in 10.0 mi SW 5.8 mph - N/A   Overcast
8:53 PM 48.2 °F - 39.2 °F 71% 29.75 in 10.0 mi WSW 4.6 mph - N/A   Overcast
9:13 PM 48.2 °F - 39.2 °F 71% 29.76 in 10.0 mi WSW 3.5 mph - N/A   Overcast
9:32 PM 48.2 °F - 39.2 °F 71% 29.76 in 10.0 mi WSW 3.5 mph - N/A   Overcast
9:53 PM 48.2 °F - 41.0 °F 76% 29.77 in 10.0 mi Calm Calm - N/A   Overcast
10:13 PM 48.2 °F - 41.0 °F 76% 29.77 in 10.0 mi Calm Calm - N/A   Overcast
10:32 PM 48.2 °F - 41.0 °F 76% 29.76 in 10.0 mi Calm Calm - N/A   Overcast
10:53 PM 46.4 °F - 41.0 °F 81% 29.76 in 10.0 mi Calm Calm - N/A   Overcast
11:12 PM 46.4 °F 45.2 °F 41.0 °F 81% 29.75 in 10.0 mi SSW 3.5 mph - N/A   Overcast
11:33 PM 46.4 °F - 41.0 °F 81% 29.76 in 10.0 mi Calm Calm - N/A   Unknown
11:53 PM 46.4 °F 44.3 °F 42.8 °F 87% 29.76 in 10.0 mi West 4.6 mph - N/A   Overcast